Location: Orange Harbor Mobile Home Park
(26.6923°N, 81.7937°W)
Time: 01:51:28
(UTC+00:00)

Tiangong - Pass Details

Date: 01 July 2021
Orbit: 373 x 386 km, 41.5° (Epoch: 02 August)

Event Time Altitude Azimuth Distance (km) Brightness Sun altitude
Rises 00:55:56 0° 192° (SSW) 2,209 4.7 -7.0°
Reaches altitude 10° 00:59:22 10° 151° (SSE) 1,362 3.3 -7.6°
Maximum altitude 01:00:07 11° 137° (SE) 1,324 3.2 -7.8°
Enters shadow 01:00:34 10° 128° (SE) 1,338 3.1 -7.9°
